STARLINK-36103, 66985

Orbit data source: Space-Track

STARLINK-36103, 66985 is a payload satellite owned by SpaceX/Seattle (US) in LEO that was launched on Mon, 08 Dec 2025 UTC via an FALCON 9 launch vehicle from the Air Force Eastern Test Range (AFETR). Payload-class satellites include a variety of spacecraft equipped with specific instruments for various scientific and technological missions. These include communications satellites like Starlink; space stations such as the ISS; scientific satellites like the Hubble; Earth observation satellites from companies like Planet Labs, Umbra, and HawkEye 360; GPS; miniature CubeSats for education and research; and military/defense satellites.

Loading next visibility...
Identifier
66985, 2025-288AC
Orbit
LEO
Country
Flag of USUS
Related business
Manufacturer
SpaceX/Seattle
Mission
Operational Commercial Communications
Bus & Motor
STARLINK V2MO, Unknown motor
Mass
575 kg wet, ~530 kg dry
Launch date (UTC)
2025-12-08 (5 months ago)
Launch vehicle
FALCON 9
Launch site
Air Force Eastern Test Range (AFETR)
Object type
Payload
Rocket body
Debris
Shape & HBR
Box + 2 Pan, 17.7 m
Radar Cross Section
36.964 m²

Expand to show TLE details & history
Last TLE update: 12 hours ago

TLE from 12 hours ago
0 STARLINK-36103
1 66985U 25288AC  26130.01997606  .00013807  00000-0  51033-3 0  9993
2 66985  43.0007  37.3827 0000869 191.4739 168.6093 15.27579881 24661
Epoch: 2026-05-10T00:28Z
TLE epoch observation values (Epoch: 2026-05-10T00:28:45.931Z)
Latitude
-0.00002°
Longitude
162.36224°
Altitude
483.409 km
Speed
7.625 km/s
True Right ascension
02h 29m 31s
True Declination
0° 00' 00"
Sunlit
Object was in daylight at epoch
Visualization orbit readout
Latitude
Unknown
Longitude
Unknown
Altitude
Unknown
Speed
Unknown
Apparent Right ascension
Unknown
Apparent Declination
Unknown
Sunlit
N/A
Visualization observer readout
Local Sidereal Time
20:36:00
Azimuth
Unknown
Elevation
Unknown
Doppler factor
Unknown
Orbital elements
Apogee altitude
485.591 km
Perigee altitude
484.398 km
Semi-major axis
6,863.132 km
Eccentricity
0.00009
Inclination
43.0007°
RAAN
37.3827°
Arg. of periapsis
191.4739°
True anomaly
168.61127°
Mean anomaly
168.6093°
Eccentric anomaly
168.61028°
Mean motion
3.81733 °/min
Orbital period
94.31 mins
BSTAR
0.00051033
Loading maneuver chart data...
Computing Atmospheric mass density...
Loading historical data...
Loading historical data...
Loading historical data...
Loading historical data...
Loading historical data...
Loading historical data...
Loading historical data...

Documentation

Showing up to 5 results
|